{"data":{"norad_id":52991,"epoch":"2026-09-19T19:44:08.384064Z","epoch_age_seconds":127456,"freshness":"FRESH","line1":"1 52991U 22076F   26262.82231926 -.00000332  00000+0  13149-5 0  9995","line2":"2 52991  53.1585 297.2339 0001363  85.4756 274.6403 15.34384369232221","mean_motion":15.34384369,"eccentricity":0.0001363,"inclination_deg":53.1585,"raan_deg":297.2339,"arg_perigee_deg":85.4756,"mean_anomaly_deg":274.6403,"bstar":1.3149e-6,"rev_number":23222,"period_min":93.848714122296,"perigee_km":461.81728637048,"apogee_km":463.68211208469,"semimajor_km":6840.8866992276,"source":"CELESTRAK","updated_at":"2026-09-20T09:00:40.139626Z"}}